Regional Weather Roundup
Issued by NWS Charleston, SC

Current Version | Previous Version | Graphics & Text | Print | Product List | Glossary On
Versions: 1 2 3 4 5 6 7 8 9 10 11 12 13 14 15 16 17 18 19 20 21 22 23 24 25 26 27 28 29 30 31 32 33 34 35 36 37 38 39 40 41 42 43 44 45 46 47 48 49 50
742
ASUS42 KCHS 252013
RWRCHS

REGIONAL WEATHER ROUNDUP
NATIONAL WEATHER SERVICE CHARLESTON SC
400 PM EDT THU AUG 25 2016

NOTE: "FAIR" INDICATES FEW OR NO CLOUDS BELOW 12,000 FEET WITH NO
SIGNIFICANT WEATHER AND/OR OBSTRUCTIONS TO VISIBILITY.

NOT ALL STATIONS ARE QUALITY CONTROLLED. USE DATA WITH CAUTION...
ESPECIALLY DEWPOINT OBSERVATIONS.

SCZ027-030-031-034>040-042>050-252100-
...SOUTHEAST SOUTH CAROLINA...

CITY           SKY/WX    TMP DP  RH WIND       PRES   REMARKS
N CHARLESTON   PTSUNNY   86  71  60 SE12      30.09F HX  91
WATERFRONT PRK   N/A     85  75  71 E12       30.08F HX  93
MOUNT PLEASANT FAIR      88  70  55 SE7       30.10F HX  92
JOHNS ISLAND   FAIR      86  72  62 E10       30.10F HX  92
PINOPOLIS        N/A     86  66  51 CALM      30.03F
MONCKS CORNER  FAIR      88  64  45 E7        30.09F
SUMMERVILLE    FAIR      91  66  43 N7        30.10F HX  94
BEAUFORT MCAS  MOSUNNY   92  65  40 VRB6      30.09F HX  94
BEAUFORT ARPT  FAIR      90  66  45 SE9       30.09F HX  92
HILTON HEAD IS MOSUNNY   91  72  52 NE6G14    30.10F HX  98
WALTERBORO     CLEAR     91  55  29 CALM      30.10F
ALLENDALE      MOCLDY    91  63  38 VRB5      30.08F HX  92

...SOUTHERN MIDLANDS AND PEE DEE...

CITY           SKY/WX    TMP DP  RH WIND       PRES   REMARKS
GEORGETOWN     FAIR      86  72  62 SE10      30.11F HX  92
KINGSTREE      FAIR      93  63  36 E9        30.09F HX  94
ORANGEBURG     SUNNY     91  64  40 VRB6      30.09F HX  92
BARNWELL       NOT AVBL
AIKEN          MOCLDY    90  68  48 SW3       30.14F HX  93
MANNING        FAIR      90  64  43 N6        30.09F HX  91
COLUMBIA       MOSUNNY   92  66  42 VRB5      30.08F HX  94
SUMTER         MOSUNNY   92  66  42 E7        30.07F HX  95
FLORENCE       MOSUNNY   91  64  40 E6        30.09F HX  92
MYRTLE BEACH   MOSUNNY   88  66  48 S15       30.12F HX  90
N MYRTLE BEACH SUNNY     86  71  60 SE9G18    30.10F HX  91

$$

GAZ063-065-086>088-099>101-113>116-118-119-134>141-150-252100-
...SOUTHEAST GEORGIA...

CITY           SKY/WX    TMP DP  RH WIND       PRES   REMARKS
SAVANNAH ARPT  MOSUNNY   93  64  38 VRB3      30.07F HX  94
HUNTER AAF     SUNNY     89  75  62 E12       30.05F HX 100
FORT STEWART   MOSUNNY   90  67  45 E7        30.04F HX  93
STATESBORO     SUNNY     93  65  39 E3        30.09F HX  95
SYLVANIA       NOT AVBL
CLAXTON        FAIR      92  65  40 N7        30.08F HX  94

...CSRA...CENTRAL AND FAR SOUTHEAST GEORGIA...

CITY           SKY/WX    TMP DP  RH WIND       PRES   REMARKS
THOMSON        SUNNY     93  71  48 MISG      30.15F HX 100
AUGUSTA-BUSH   MOSUNNY   93  68  43 NE6       30.08F HX  97
AUGUSTA-DANIEL MOSUNNY   93  67  42 VRB3      30.11F HX  96
SWAINSBORO     MOCLDY    93  61  33 E5        30.10F HX  93
VIDALIA        SUNNY     93  68  43 NE8       30.09F HX  97
EASTMAN        MOCLDY    93  47  20 E5        30.11F
HAZLEHURST     FAIR      93  63  36 E8        30.08F HX  94
ALMA           SUNNY     90  66  45 VRB6      30.08F HX  92
WAYCROSS         N/A     93  71  47 E9        30.07F HX  99
JESUP          FAIR      90  73  58 E3        30.07F HX  98
BAXLEY         FAIR      91  72  52 NE8       30.08F HX  98
BRUNSWICK      MOSUNNY   88  73  62 E17       30.08F HX  96
SAINT SIMONS   MOSUNNY   87  72  60 NE10G21   30.08F HX  93

$$

SCZ027-028-034-036>038-045-046-048>050-GAZ119-141-252100-
...LAKE AND SUPPLEMENTAL COASTAL OBSERVATIONS...

STATION/POSITION TIME  TEMP    WIND        PRES    WAVE   SWELL
                       AIR SEA DIR/SP/G            HT/PER HT/PER/DIR
                 (UTC) (F)     (DEG/KT/KT) (MB)    (FT/S) (FT/S/D)
WINYAH BAY       1845   82     100/  8     1019.0
LAKE MURRAY      1900   88     200/  5/  6 1019.0F
ACE BASIN NERRS  NOT AVBL
FORT PULASKI     1900   84 85   60/ 13/ 16 1020.0F
SAPELO ISLAND    1900   87      50/ 11     1019.0F

$$

ANZ835-935-AMZ111-154-330-350-352-354-370-450-454-472-252100-
...C-MAN AND BUOY OBSERVATIONS...

STATION/POSITION TIME  TEMP    WIND        PRES    WAVE   SWELL
                       AIR SEA DIR/SP/G            HT/PER HT/PER/DIR
                 (UTC) (F)     (DEG/KT/KT) (MB)    (FT/S) (FT/S/D)
BUOY 41004       1950   83 84   60/ 12/ 14 1018.5F   3/10   3/ 90/10
BUOY 41008       1950   83 85   50/ 17/ 19 1017.9F   4/ 5   2/110/11
FOLLY BEACH CMAN 1900   82     100/ 11/ 13 1020.2F
CAPERS NEARSHORE 1908   81 84  100/  8/ 12 1019.5F
FRIPP NEARSHORE  1908   83 86   90/ 12/ 16 1018.8F


STATION/POSITION TIME  TEMP    WIND        PRES    WAVE   SWELL
                       AIR SEA DIR/SP/G            HT/PER HT/PER/DIR
                 (UTC) (F)     (DEG/KT/KT) (MB)    (FT/S) (FT/S/D)
5E ST. MARYS GA  1901      85                N/A     3/11   2/100/11
FRYING PAN BUOY  1900   82 85   60/ 10/ 12 1019.4F
BUOY 41025       1950   81 85   80/  6/  8 1019.5F   3/ 9   3/100/ 9
CAPE LOOKOUT NC  2000   82     110/  7/  8 1019.0F
BUOY 41002       1950   82 84   50/ 14/ 17 1017.7F   5/ 8   3/100/ 8
BUOY 41010       NOT AVBL
ST AUGUSTINE FL  2000   82 84   20/ 16/ 17 1018.3F


$$




USA.gov is the U.S. government's official web portal to all federal, state and local government web resources and services.